QPF
0.01 0.00 0.00 0.00 0.00 0.00 0.01 0.01 0.01 0.00 0.00 0.00 0.00 0.00 0.00 0.00 0.00 0.00 0.00 0.00 0.00 0.00 0.01 0.01 0.01 0.01 0.02 0.02 0.03 0.05 0.05 0.05 0.05 0.05 0.05 0.04 0.03 0.03 0.02 0.02 0.02 0.02 0.01 0.02
0.00 0.00 0.00 0.00 0.00 0.00 0.00 0.00 0.00 0.00 0.00 0.00 0.00 0.00 0.00 0.00 0.00 0.00 0.00 0.00 0.00 0.00 0.01 0.01 0.02 0.02 0.02 0.02 0.03 0.04 0.06 0.05 0.04 0.04 0.03 0.03 0.03 0.03 0.02 0.02 0.02 0.02 0.02 0.02
0.01 0.00 0.00 0.01 0.00 0.00 0.00 0.00 0.00 0.00 0.00 0.00 0.00 0.00 0.00 0.00 0.00 0.00 0.00 0.00 0.00 0.00 0.01 0.01 0.01 0.02 0.02 0.02 0.03 0.04 0.04 0.03 0.02 0.02 0.02 0.03 0.04 0.04 0.03 0.02 0.02 0.02 0.02 0.02
0.01 0.00 0.01 0.01 0.01 0.00 0.01 0.01 0.01 0.00 0.00 0.00 0.00 0.00 0.00 0.00 0.00 0.00 0.00 0.00 0.00 0.01 0.01 0.02 0.01 0.01 0.02 0.03 0.03 0.03 0.03 0.02 0.02 0.02 0.02 0.02 0.02 0.03 0.03 0.03 0.03 0.02 0.02 0.03
0.02 0.01 0.01 0.01 0.01 0.02 0.01 0.01 0.01 0.01 0.00 0.00 0.00 0.00 0.00 0.00 0.00 0.00 0.00 0.00 0.00 0.00 0.01 0.01 0.01 0.01 0.02 0.03 0.02 0.02 0.02 0.02 0.01 0.01 0.01 0.01 0.02 0.02 0.02 0.02 0.02 0.01 0.01 0.02
0.03 0.03 0.02 0.01 0.01 0.02 0.02 0.02 0.01 0.01 0.01 0.00 0.00 0.00 0.01 0.00 0.00 0.00 0.00 0.00 0.00 0.00 0.00 0.01 0.00 0.00 0.01 0.03 0.02 0.01 0.02 0.02 0.02 0.01 0.01 0.01 0.02 0.02 0.02 0.02 0.02 0.01 0.01 0.01
0.04 0.03 0.02 0.02 0.01 0.02 0.03 0.03 0.01 0.01 0.01 0.01 0.01 0.01 0.00 0.00 0.00 0.00 0.00 0.00 0.00 0.00 0.00 0.00 0.00 0.00 0.00 0.01 0.01 0.02 0.02 0.02 0.02 0.01 0.02 0.02 0.02 0.02 0.02 0.02 0.02 0.02 0.01 0.01
0.04 0.04 0.03 0.01 0.01 0.03 0.03 0.02 0.01 0.01 0.01 0.01 0.01 0.00 0.00 0.00 0.00 0.00 0.00 0.00 0.00 0.00 0.00 0.00 0.00 0.00 0.00 0.00 0.01 0.02 0.01 0.01 0.01 0.01 0.02 0.02 0.02 0.02 0.02 0.02 0.02 0.02 0.02 0.02
0.04 0.03 0.02 0.01 0.02 0.02 0.01 0.01 0.01 0.01 0.01 0.01 0.01 0.01 0.00 0.00 0.00 0.00 0.00 0.00 0.00 0.00 0.00 0.00 0.00 0.00 0.00 0.00 0.01 0.02 0.01 0.01 0.01 0.01 0.01 0.02 0.02 0.02 0.02 0.01 0.01 0.02 0.02 0.02
0.02 0.01 0.01 0.01 0.01 0.01 0.01 0.01 0.01 0.01 0.01 0.01 0.01 0.01 0.00 0.00 0.00 0.00 0.00 0.00 0.00 0.00 0.00 0.00 0.00 0.00 0.00 0.00 0.01 0.02 0.02 0.01 0.01 0.00 0.01 0.01 0.02 0.02 0.02 0.02 0.01 0.01 0.02 0.02
0.01 0.01 0.01 0.01 0.01 0.01 0.00 0.00 0.00 0.00 0.00 0.00 0.00 0.00 0.00 0.00 0.00 0.00 0.00 0.00 0.00 0.00 0.00 0.00 0.00 0.00 0.00 0.00 0.01 0.02 0.02 0.01 0.02 0.01 0.00 0.01 0.01 0.02 0.02 0.02 0.02 0.02 0.02 0.02
0.01 0.01 0.01 0.01 0.01 0.01 0.01 0.00 0.00 0.00 0.00 0.00 0.00 0.00 0.00 0.00 0.00 0.00 0.00 0.00 0.00 0.00 0.00 0.00 0.00 0.00 0.00 0.00 0.00 0.01 0.02 0.02 0.02 0.01 0.01 0.01 0.01 0.01 0.02 0.02 0.03 0.02 0.02 0.02
0.01 0.01 0.02 0.01 0.01 0.01 0.01 0.00 0.00 0.00 0.00 0.00 0.00 0.00 0.00 0.00 0.00 0.00 0.00 0.00 0.00 0.00 0.00 0.00 0.00 0.00 0.00 0.00 0.01 0.01 0.02 0.02 0.01 0.01 0.01 0.01 0.01 0.01 0.01 0.01 0.02 0.02 0.02 0.02
0.01 0.02 0.02 0.01 0.01 0.01 0.01 0.00 0.00 0.00 0.00 0.00 0.00 0.00 0.00 0.00 0.00 0.00 0.00 0.00 0.00 0.00 0.00 0.00 0.00 0.00 0.00 0.01 0.01 0.02 0.02 0.01 0.01 0.01 0.00 0.00 0.01 0.01 0.01 0.01 0.01 0.01 0.02 0.02
0.02 0.02 0.02 0.02 0.01 0.01 0.01 0.01 0.01 0.01 0.01 0.01 0.00 0.00 0.00 0.00 0.01 0.00 0.00 0.00 0.00 0.00 0.00 0.00 0.00 0.00 0.00 0.01 0.01 0.01 0.01 0.01 0.01 0.00 0.00 0.00 0.00 0.01 0.01 0.01 0.01 0.01 0.01 0.01
0.02 0.02 0.02 0.02 0.02 0.02 0.02 0.02 0.02 0.01 0.01 0.01 0.01 0.00 0.00 0.01 0.01 0.00 0.00 0.00 0.00 0.00 0.00 0.00 0.00 0.00 0.00 0.00 0.00 0.00 0.00 0.00 0.00 0.00 0.00 0.00 0.00 0.01 0.01 0.01 0.01 0.01 0.01 0.01
0.05 0.05 0.04 0.04 0.03 0.03 0.02 0.02 0.02 0.01 0.01 0.01 0.01 0.01 0.01 0.01 0.01 0.00 0.00 0.01 0.01 0.01 0.00 0.00 0.00 0.00 0.00 0.00 0.00 0.00 0.00 0.00 0.00 0.00 0.00 0.00 0.00 0.00 0.01 0.01 0.00 0.00 0.00 0.01
0.06 0.05 0.04 0.04 0.03 0.03 0.02 0.02 0.02 0.01 0.01 0.01 0.01 0.01 0.01 0.01 0.01 0.01 0.01 0.01 0.01 0.01 0.01 0.00 0.00 0.00 0.00 0.00 0.00 0.00 0.00 0.00 0.00 0.00 0.00 0.00 0.00 0.00 0.00 0.00 0.00 0.00 0.00 0.00
0.05 0.04 0.03 0.03 0.03 0.03 0.02 0.02 0.02 0.02 0.02 0.02 0.02 0.02 0.02 0.02 0.01 0.01 0.01 0.00 0.00 0.00 0.00 0.00 0.00 0.00 0.00 0.00 0.00 0.00 0.00 0.00 0.00 0.00 0.00 0.00 0.00 0.00 0.00 0.00 0.00 0.00 0.00 0.01
0.03 0.03 0.03 0.03 0.02 0.02 0.03 0.03 0.03 0.02 0.02 0.02 0.02 0.02 0.02 0.01 0.01 0.01 0.01 0.01 0.01 0.01 0.00 0.00 0.00 0.00 0.00 0.00 0.00 0.00 0.00 0.00 0.00 0.01 0.01 0.00 0.00 0.00 0.00 0.00 0.00 0.00 0.01 0.01
0.04 0.03 0.03 0.03 0.03 0.03 0.03 0.03 0.03 0.03 0.03 0.02 0.02 0.01 0.01 0.01 0.00 0.00 0.00 0.00 0.00 0.00 0.00 0.00 0.00 0.00 0.00 0.00 0.01 0.00 0.01 0.01 0.01 0.01 0.01 0.01 0.01 0.00 0.00 0.00 0.00 0.01 0.01 0.01
0.03 0.03 0.02 0.02 0.02 0.03 0.03 0.02 0.02 0.02 0.01 0.01 0.01 0.01 0.01 0.01 0.00 0.00 0.00 0.01 0.00 0.00 0.00 0.00 0.00 0.00 0.01 0.01 0.01 0.01 0.01 0.01 0.01 0.01 0.01 0.01 0.01 0.01 0.01 0.01 0.01 0.01 0.01 0.01
0.02 0.02 0.02 0.02 0.01 0.01 0.01 0.01 0.01 0.01 0.01 0.01 0.01 0.01 0.01 0.01 0.00 0.01 0.01 0.00 0.01 0.01 0.01 0.01 0.01 0.01 0.01 0.01 0.01 0.01 0.01 0.01 0.01 0.01 0.01 0.01 0.01 0.01 0.02 0.01 0.01 0.01 0.01 0.01
0.02 0.02 0.02 0.02 0.01 0.01 0.01 0.01 0.01 0.01 0.00 0.00 0.00 0.00 0.00 0.00 0.01 0.01 0.01 0.01 0.01 0.01 0.01 0.01 0.01 0.01 0.01 0.01 0.01 0.01 0.01 0.01 0.01 0.01 0.01 0.02 0.02 0.02 0.02 0.02 0.02 0.02 0.02 0.02
0.02 0.02 0.02 0.02 0.02 0.02 0.01 0.01 0.01 0.01 0.00 0.00 0.01 0.00 0.00 0.01 0.01 0.01 0.01 0.01 0.01 0.01 0.01 0.01 0.01 0.01 0.01 0.01 0.01 0.01 0.01 0.02 0.02 0.02 0.02 0.02 0.02 0.02 0.02 0.02 0.02 0.02 0.02 0.02
0.02 0.02 0.02 0.02 0.02 0.02 0.02 0.02 0.01 0.01 0.01 0.01 0.01 0.01 0.01 0.01 0.01 0.01 0.01 0.01 0.01 0.01 0.01 0.01 0.01 0.01 0.01 0.01 0.01 0.02 0.02 0.02 0.02 0.02 0.02 0.02 0.02 0.02 0.02 0.02 0.02 0.02 0.02 0.02
0.02 0.02 0.02 0.02 0.02 0.02 0.02 0.02 0.01 0.01 0.01 0.01 0.01 0.01 0.01 0.01 0.01 0.01 0.01 0.01 0.01 0.01 0.01 0.01 0.01 0.01 0.01 0.01 0.01 0.01 0.01 0.01 0.01 0.01 0.02 0.02 0.02 0.02 0.02 0.02 0.02 0.02 0.02 0.02
MSLP
1023.42 1023.44 1023.40 1023.28 1023.03 1022.63 1022.07 1021.34 1020.47 1019.51 1018.50 1017.52 1016.66 1015.97 1015.49 1015.25 1015.24 1015.42 1015.74 1016.12 1016.52 1016.86 1017.11 1017.25 1017.26 1017.17 1017.00 1016.76 1016.50 1016.21 1015.91 1015.62 1015.32 1015.03 1014.73 1014.45 1014.19 1013.96 1013.79 1013.67 1013.61 1013.62 1013.68 1013.80
1022.99 1022.83 1022.58 1022.22 1021.73 1021.13 1020.42 1019.61 1018.74 1017.85 1016.98 1016.19 1015.53 1015.03 1014.73 1014.63 1014.70 1014.92 1015.24 1015.62 1015.99 1016.33 1016.60 1016.79 1016.89 1016.90 1016.85 1016.74 1016.58 1016.40 1016.19 1015.96 1015.71 1015.44 1015.16 1014.88 1014.60 1014.36 1014.14 1013.98 1013.86 1013.79 1013.77 1013.80
1022.22 1021.89 1021.43 1020.86 1020.19 1019.43 1018.61 1017.77 1016.93 1016.14 1015.43 1014.83 1014.39 1014.10 1013.98 1014.01 1014.18 1014.46 1014.80 1015.18 1015.55 1015.90 1016.19 1016.42 1016.58 1016.68 1016.72 1016.71 1016.66 1016.56 1016.43 1016.25 1016.04 1015.79 1015.53 1015.25 1014.97 1014.70 1014.46 1014.24 1014.07 1013.92 1013.82 1013.75
1021.18 1020.67 1020.04 1019.31 1018.49 1017.63 1016.76 1015.92 1015.15 1014.48 1013.94 1013.54 1013.29 1013.20 1013.25 1013.43 1013.70 1014.04 1014.42 1014.82 1015.20 1015.56 1015.88 1016.14 1016.36 1016.52 1016.64 1016.70 1016.71 1016.67 1016.59 1016.45 1016.26 1016.04 1015.79 1015.52 1015.24 1014.96 1014.69 1014.44 1014.21 1014.00 1013.82 1013.66
1019.94 1019.28 1018.51 1017.65 1016.75 1015.84 1014.97 1014.17 1013.49 1012.95 1012.57 1012.34 1012.27 1012.35 1012.55 1012.84 1013.21 1013.63 1014.06 1014.49 1014.91 1015.29 1015.64 1015.94 1016.20 1016.41 1016.57 1016.67 1016.72 1016.71 1016.64 1016.52 1016.36 1016.15 1015.91 1015.64 1015.37 1015.08 1014.80 1014.53 1014.26 1014.00 1013.75 1013.53
1018.58 1017.79 1016.92 1015.99 1015.05 1014.15 1013.31 1012.60 1012.02 1011.60 1011.35 1011.26 1011.34 1011.54 1011.85 1012.25 1012.70 1013.17 1013.66 1014.14 1014.60 1015.03 1015.41 1015.76 1016.05 1016.29 1016.47 1016.59 1016.65 1016.65 1016.59 1016.47 1016.31 1016.11 1015.87 1015.62 1015.35 1015.08 1014.80 1014.51 1014.22 1013.93 1013.64 1013.36
1017.14 1016.25 1015.31 1014.37 1013.44 1012.59 1011.83 1011.21 1010.74 1010.43 1010.29 1010.31 1010.48 1010.77 1011.15 1011.61 1012.11 1012.65 1013.19 1013.72 1014.23 1014.71 1015.15 1015.54 1015.86 1016.13 1016.33 1016.46 1016.51 1016.50 1016.43 1016.31 1016.14 1015.94 1015.71 1015.47 1015.22 1014.96 1014.68 1014.40 1014.11 1013.80 1013.48 1013.16
1015.62 1014.66 1013.71 1012.79 1011.93 1011.17 1010.52 1010.01 1009.66 1009.45 1009.40 1009.49 1009.71 1010.04 1010.45 1010.94 1011.48 1012.05 1012.63 1013.22 1013.78 1014.32 1014.81 1015.24 1015.61 1015.90 1016.12 1016.24 1016.29 1016.27 1016.19 1016.05 1015.88 1015.68 1015.47 1015.24 1015.00 1014.75 1014.50 1014.22 1013.93 1013.61 1013.29 1012.95
1014.03 1013.03 1012.10 1011.25 1010.50 1009.87 1009.37 1008.99 1008.75 1008.65 1008.67 1008.80 1009.05 1009.39 1009.81 1010.29 1010.84 1011.42 1012.03 1012.66 1013.27 1013.86 1014.40 1014.88 1015.29 1015.61 1015.84 1015.97 1016.01 1015.98 1015.89 1015.75 1015.58 1015.38 1015.17 1014.96 1014.74 1014.50 1014.26 1013.99 1013.70 1013.39 1013.06 1012.72
1012.36 1011.38 1010.51 1009.77 1009.17 1008.70 1008.36 1008.14 1008.04 1008.04 1008.13 1008.30 1008.56 1008.89 1009.29 1009.75 1010.28 1010.86 1011.48 1012.12 1012.77 1013.39 1013.97 1014.49 1014.93 1015.27 1015.51 1015.65 1015.69 1015.66 1015.56 1015.42 1015.25 1015.06 1014.86 1014.65 1014.44 1014.22 1013.98 1013.72 1013.43 1013.13 1012.80 1012.46
1010.69 1009.75 1008.98 1008.38 1007.95 1007.67 1007.52 1007.48 1007.52 1007.64 1007.81 1008.03 1008.30 1008.62 1008.99 1009.43 1009.92 1010.47 1011.08 1011.71 1012.36 1012.99 1013.59 1014.12 1014.56 1014.91 1015.16 1015.30 1015.34 1015.31 1015.22 1015.08 1014.91 1014.72 1014.53 1014.32 1014.11 1013.89 1013.65 1013.39 1013.10 1012.79 1012.47 1012.13
1009.12 1008.27 1007.62 1007.18 1006.94 1006.86 1006.91 1007.05 1007.26 1007.50 1007.76 1008.04 1008.34 1008.66 1009.01 1009.41 1009.86 1010.37 1010.92 1011.52 1012.13 1012.73 1013.30 1013.81 1014.23 1014.56 1014.79 1014.92 1014.96 1014.92 1014.83 1014.69 1014.52 1014.33 1014.14 1013.93 1013.72 1013.49 1013.24 1012.97 1012.68 1012.36 1012.03 1011.70
1007.83 1007.08 1006.57 1006.30 1006.23 1006.34 1006.58 1006.91 1007.27 1007.65 1008.02 1008.37 1008.71 1009.03 1009.37 1009.73 1010.12 1010.57 1011.05 1011.57 1012.11 1012.64 1013.13 1013.58 1013.95 1014.23 1014.42 1014.51 1014.53 1014.47 1014.37 1014.22 1014.05 1013.86 1013.66 1013.44 1013.22 1012.97 1012.71 1012.43 1012.12 1011.80 1011.47 1011.13
1007.00 1006.36 1005.99 1005.86 1005.95 1006.22 1006.63 1007.11 1007.62 1008.11 1008.58 1009.00 1009.38 1009.71 1010.03 1010.35 1010.69 1011.05 1011.43 1011.85 1012.27 1012.68 1013.07 1013.41 1013.68 1013.88 1014.00 1014.04 1014.01 1013.93 1013.80 1013.64 1013.46 1013.26 1013.05 1012.82 1012.58 1012.32 1012.04 1011.75 1011.43 1011.11 1010.77 1010.43
1006.78 1006.25 1005.99 1005.97 1006.18 1006.57 1007.09 1007.67 1008.28 1008.87 1009.41 1009.88 1010.28 1010.62 1010.92 1011.19 1011.44 1011.71 1011.97 1012.25 1012.53 1012.80 1013.04 1013.24 1013.39 1013.48 1013.51 1013.48 1013.40 1013.27 1013.12 1012.94 1012.74 1012.53 1012.30 1012.06 1011.80 1011.53 1011.24 1010.93 1010.61 1010.28 1009.94 1009.60
1007.24 1006.81 1006.63 1006.68 1006.95 1007.39 1007.96 1008.59 1009.24 1009.86 1010.43 1010.91 1011.31 1011.64 1011.89 1012.09 1012.26 1012.40 1012.54 1012.66 1012.78 1012.88 1012.96 1013.02 1013.03 1013.00 1012.93 1012.82 1012.68 1012.51 1012.32 1012.12 1011.90 1011.68 1011.44 1011.19 1010.92 1010.63 1010.33 1010.02 1009.69 1009.35 1009.01 1008.67
1008.35 1008.00 1007.87 1007.94 1008.21 1008.64 1009.18 1009.78 1010.40 1011.00 1011.53 1011.99 1012.34 1012.61 1012.79 1012.91 1012.97 1012.99 1012.98 1012.95 1012.91 1012.85 1012.77 1012.68 1012.56 1012.42 1012.26 1012.07 1011.88 1011.67 1011.45 1011.23 1011.00 1010.76 1010.51 1010.25 1009.97 1009.68 1009.37 1009.05 1008.71 1008.37 1008.03 1007.67
1009.97 1009.69 1009.57 1009.62 1009.84 1010.19 1010.64 1011.15 1011.67 1012.17 1012.62 1012.99 1013.26 1013.43 1013.52 1013.53 1013.47 1013.35 1013.21 1013.03 1012.84 1012.63 1012.42 1012.19 1011.97 1011.74 1011.50 1011.27 1011.03 1010.80 1010.57 1010.33 1010.09 1009.84 1009.59 1009.31 1009.03 1008.72 1008.40 1008.07 1007.73 1007.38 1007.02 1006.65
1011.90 1011.66 1011.53 1011.54 1011.66 1011.89 1012.21 1012.57 1012.94 1013.29 1013.59 1013.82 1013.97 1014.02 1013.99 1013.87 1013.68 1013.44 1013.16 1012.86 1012.54 1012.21 1011.89 1011.58 1011.28 1010.99 1010.71 1010.45 1010.19 1009.95 1009.71 1009.47 1009.23 1008.97 1008.70 1008.42 1008.11 1007.80 1007.46 1007.11 1006.75 1006.38 1005.99 1005.60
1013.87 1013.66 1013.52 1013.45 1013.47 1013.57 1013.71 1013.90 1014.09 1014.27 1014.40 1014.47 1014.46 1014.37 1014.20 1013.95 1013.64 1013.28 1012.89 1012.47 1012.06 1011.65 1011.25 1010.88 1010.53 1010.21 1009.92 1009.65 1009.39 1009.15 1008.91 1008.67 1008.42 1008.15 1007.87 1007.56 1007.23 1006.89 1006.53 1006.15 1005.76 1005.36 1004.95 1004.52
1015.67 1015.48 1015.32 1015.19 1015.11 1015.07 1015.06 1015.07 1015.08 1015.08 1015.03 1014.94 1014.77 1014.53 1014.22 1013.85 1013.42 1012.95 1012.46 1011.96 1011.47 1010.99 1010.55 1010.14 1009.78 1009.45 1009.15 1008.89 1008.64 1008.40 1008.16 1007.91 1007.65 1007.36 1007.05 1006.71 1006.35 1005.97 1005.57 1005.15 1004.73 1004.29 1003.85 1003.40
1017.15 1016.99 1016.82 1016.64 1016.47 1016.32 1016.18 1016.04 1015.89 1015.72 1015.52 1015.27 1014.95 1014.58 1014.14 1013.65 1013.12 1012.55 1011.98 1011.40 1010.85 1010.33 1009.85 1009.42 1009.04 1008.71 1008.41 1008.15 1007.90 1007.66 1007.41 1007.14 1006.85 1006.53 1006.18 1005.80 1005.39 1004.96 1004.52 1004.07 1003.60 1003.14 1002.67 1002.20
1018.27 1018.14 1017.96 1017.75 1017.53 1017.30 1017.06 1016.81 1016.54 1016.24 1015.91 1015.53 1015.09 1014.60 1014.06 1013.46 1012.83 1012.18 1011.53 1010.89 1010.28 1009.71 1009.19 1008.73 1008.33 1007.98 1007.67 1007.39 1007.12 1006.86 1006.59 1006.29 1005.96 1005.60 1005.20 1004.77 1004.31 1003.84 1003.35 1002.86 1002.37 1001.89 1001.41 1000.95
1019.06 1018.95 1018.78 1018.57 1018.32 1018.05 1017.75 1017.43 1017.07 1016.69 1016.26 1015.79 1015.26 1014.67 1014.03 1013.35 1012.64 1011.91 1011.18 1010.46 1009.79 1009.16 1008.58 1008.07 1007.62 1007.23 1006.88 1006.56 1006.25 1005.95 1005.63 1005.29 1004.91 1004.50 1004.06 1003.58 1003.08 1002.57 1002.06 1001.55 1001.05 1000.57 1000.12 999.68
1019.62 1019.53 1019.38 1019.17 1018.92 1018.63 1018.30 1017.94 1017.55 1017.11 1016.62 1016.08 1015.48 1014.82 1014.11 1013.35 1012.56 1011.75 1010.93 1010.14 1009.38 1008.67 1008.02 1007.43 1006.91 1006.44 1006.02 1005.64 1005.27 1004.91 1004.53 1004.14 1003.71 1003.26 1002.78 1002.27 1001.75 1001.22 1000.70 1000.20 999.72 999.27 998.86 998.50
1020.06 1019.99 1019.85 1019.65 1019.41 1019.12 1018.79 1018.42 1018.00 1017.53 1017.01 1016.43 1015.78 1015.07 1014.29 1013.46 1012.60 1011.70 1010.80 1009.91 1009.06 1008.25 1007.49 1006.80 1006.18 1005.62 1005.10 1004.63 1004.19 1003.76 1003.33 1002.88 1002.42 1001.93 1001.43 1000.91 1000.40 999.88 999.39 998.92 998.49 998.10 997.77 997.50
1020.48 1020.42 1020.29 1020.11 1019.87 1019.59 1019.26 1018.89 1018.46 1017.98 1017.44 1016.83 1016.15 1015.39 1014.56 1013.67 1012.73 1011.76 1010.77 1009.78 1008.81 1007.89 1007.02 1006.21 1005.47 1004.80 1004.19 1003.62 1003.10 1002.60 1002.11 1001.63 1001.15 1000.66 1000.17 999.67 999.18 998.71 998.27 997.87 997.51 997.21 996.98 996.81
Thickness
5483 5488 5486 5490 5493 5487 5487 5489 5491 5505 5508 5527 5525 5521 5519 5515 5512 5509 5508 5507 5505 5503 5500 5499 5497 5495 5494 5493 5491 5490 5488 5486 5484 5483 5481 5479 5478 5477 5475 5474 5474 5473 5472 5471
5469 5477 5475 5479 5486 5486 5488 5490 5491 5497 5508 5519 5515 5511 5509 5506 5504 5504 5504 5503 5501 5499 5496 5494 5492 5490 5489 5487 5486 5484 5483 5480 5478 5476 5474 5473 5471 5470 5469 5468 5466 5465 5464 5464
5454 5462 5466 5470 5488 5488 5487 5486 5490 5495 5509 5509 5505 5505 5505 5502 5499 5500 5500 5499 5496 5494 5492 5489 5487 5485 5483 5482 5479 5477 5476 5474 5472 5469 5468 5467 5465 5464 5462 5461 5460 5459 5458 5456
5435 5446 5448 5486 5490 5488 5486 5486 5485 5492 5498 5499 5500 5501 5498 5496 5494 5494 5495 5494 5491 5488 5486 5484 5481 5479 5477 5475 5472 5470 5468 5466 5465 5463 5461 5460 5458 5457 5455 5454 5452 5451 5450 5449
5425 5431 5450 5470 5478 5475 5473 5479 5483 5484 5488 5489 5489 5488 5490 5491 5490 5490 5490 5488 5486 5483 5480 5478 5475 5472 5470 5467 5465 5463 5461 5459 5458 5456 5455 5453 5451 5449 5447 5446 5444 5443 5442 5441
5419 5429 5444 5469 5472 5468 5472 5473 5480 5476 5479 5477 5475 5476 5486 5486 5483 5482 5481 5480 5478 5474 5471 5469 5467 5464 5462 5459 5457 5455 5454 5452 5451 5449 5448 5446 5444 5442 5440 5438 5437 5436 5434 5433
5415 5423 5438 5452 5454 5459 5458 5468 5471 5469 5470 5467 5467 5474 5477 5475 5474 5473 5472 5470 5468 5464 5462 5460 5458 5456 5454 5452 5450 5449 5447 5445 5443 5441 5439 5438 5436 5434 5432 5430 5428 5426 5425 5424
5407 5413 5433 5445 5440 5445 5453 5457 5459 5460 5460 5459 5461 5463 5463 5463 5463 5462 5461 5459 5457 5455 5453 5451 5448 5447 5445 5443 5442 5440 5439 5437 5435 5432 5431 5429 5427 5425 5422 5420 5418 5416 5414 5413
5415 5428 5435 5432 5435 5439 5440 5443 5447 5449 5451 5451 5451 5452 5452 5452 5452 5451 5449 5448 5447 5444 5442 5440 5438 5437 5435 5434 5432 5430 5429 5427 5425 5423 5421 5419 5417 5415 5412 5410 5408 5406 5404 5403
5401 5415 5420 5422 5424 5428 5430 5434 5438 5439 5441 5441 5441 5442 5442 5441 5440 5438 5437 5437 5435 5433 5431 5429 5427 5426 5425 5423 5422 5420 5418 5416 5414 5412 5410 5409 5407 5405 5403 5401 5399 5397 5395 5393
5392 5403 5407 5415 5418 5420 5422 5424 5427 5428 5430 5432 5432 5432 5431 5430 5429 5428 5427 5425 5424 5423 5421 5419 5417 5415 5414 5413 5411 5409 5407 5406 5404 5402 5400 5398 5396 5395 5393 5391 5388 5387 5386 5384
5394 5400 5399 5408 5414 5412 5412 5415 5417 5419 5420 5421 5422 5422 5420 5419 5418 5417 5416 5414 5413 5411 5410 5408 5406 5405 5403 5402 5401 5398 5397 5395 5393 5391 5389 5387 5386 5384 5384 5382 5380 5378 5376 5374
5391 5393 5392 5398 5401 5401 5402 5405 5407 5408 5409 5410 5411 5410 5409 5407 5406 5404 5403 5402 5401 5400 5398 5396 5394 5393 5391 5390 5389 5388 5386 5384 5382 5380 5379 5377 5375 5373 5372 5372 5369 5368 5366 5364
5380 5380 5383 5388 5389 5391 5392 5393 5394 5395 5396 5397 5397 5397 5395 5394 5393 5392 5391 5390 5389 5387 5386 5384 5383 5381 5379 5378 5377 5376 5374 5373 5371 5369 5367 5365 5364 5362 5360 5359 5358 5356 5354 5352
5372 5373 5376 5379 5379 5380 5380 5380 5380 5381 5381 5382 5383 5383 5382 5381 5380 5379 5378 5377 5376 5374 5373 5372 5371 5369 5367 5366 5365 5364 5362 5361 5359 5357 5355 5354 5352 5351 5349 5348 5346 5345 5343 5341
5363 5364 5366 5367 5369 5369 5368 5369 5369 5369 5370 5371 5371 5370 5370 5369 5367 5366 5365 5364 5363 5362 5361 5360 5359 5357 5356 5354 5353 5351 5350 5349 5348 5346 5344 5343 5342 5340 5338 5337 5335 5334 5332 5329
5351 5353 5355 5356 5359 5359 5359 5360 5360 5360 5359 5359 5359 5358 5357 5356 5354 5353 5352 5351 5351 5349 5349 5348 5347 5346 5344 5343 5341 5340 5338 5338 5337 5336 5334 5332 5331 5329 5327 5326 5324 5322 5320 5319
5342 5345 5346 5348 5349 5349 5348 5349 5349 5348 5347 5347 5346 5345 5344 5344 5343 5342 5341 5340 5338 5337 5337 5336 5335 5335 5333 5332 5331 5330 5328 5327 5325 5324 5323 5322 5321 5319 5317 5315 5313 5311 5310 5308
5331 5333 5334 5336 5336 5337 5337 5337 5337 5337 5336 5335 5334 5333 5332 5331 5330 5329 5328 5327 5326 5325 5324 5324 5325 5324 5323 5322 5321 5320 5318 5317 5315 5314 5313 5313 5311 5308 5306 5305 5303 5301 5299 5298
5320 5321 5321 5322 5324 5324 5325 5325 5324 5324 5323 5322 5322 5321 5319 5319 5318 5317 5316 5314 5313 5313 5313 5313 5314 5313 5312 5312 5311 5310 5308 5307 5305 5304 5303 5302 5300 5298 5296 5295 5293 5291 5289 5288
5307 5308 5309 5309 5310 5311 5311 5311 5312 5311 5311 5310 5310 5309 5308 5307 5305 5305 5304 5304 5303 5302 5302 5303 5302 5302 5301 5301 5301 5299 5297 5296 5295 5293 5292 5291 5289 5288 5286 5285 5283 5281 5280 5278
5294 5295 5296 5296 5297 5296 5296 5297 5298 5298 5298 5298 5297 5297 5296 5295 5294 5294 5293 5292 5292 5292 5292 5291 5291 5291 5291 5291 5290 5288 5286 5285 5283 5282 5280 5279 5278 5277 5276 5274 5273 5272 5270 5268
5282 5283 5283 5284 5283 5283 5283 5284 5285 5285 5285 5285 5285 5285 5284 5283 5283 5283 5282 5281 5281 5282 5281 5280 5281 5282 5282 5280 5278 5277 5275 5273 5272 5270 5269 5268 5267 5267 5265 5264 5263 5262 5260 5259
5271 5271 5271 5271 5272 5272 5272 5272 5272 5273 5272 5272 5272 5272 5272 5271 5271 5270 5270 5271 5271 5271 5270 5270 5271 5271 5270 5268 5266 5265 5263 5262 5261 5260 5259 5258 5257 5256 5255 5254 5253 5252 5251 5250
5259 5259 5259 5260 5261 5261 5260 5261 5261 5261 5262 5261 5260 5259 5259 5259 5259 5258 5258 5259 5260 5260 5259 5259 5260 5260 5258 5256 5255 5254 5253 5252 5251 5250 5249 5249 5248 5247 5246 5245 5244 5244 5243 5243
5248 5248 5248 5249 5248 5248 5248 5249 5249 5249 5250 5249 5249 5248 5248 5248 5248 5248 5248 5248 5248 5249 5248 5248 5247 5247 5246 5245 5244 5244 5243 5243 5242 5241 5240 5240 5240 5239 5238 5238 5237 5237 5237 5237
5237 5237 5237 5237 5237 5237 5237 5237 5237 5237 5238 5238 5237 5237 5237 5237 5237 5237 5237 5238 5238 5237 5237 5237 5237 5237 5236 5235 5235 5234 5234 5234 5234 5233 5233 5233 5233 5232 5232 5231 5231 5231 5231 5231